Lovelock, NV

2:51 PM PDT on March 23, 2017 (GMT -0700)
Derby

Weather History for KLOL - March, 2013

Change the Weather History Date:

Friday, March 1, 2013

  Actual Average Record
Temperature  
Mean Temperature 44 °F -  
Max Temperature 64 °F 52 °F 71 °F (1961)
Min Temperature 23 °F 25 °F 5 °F (1960)
Degree Days  
Heating Degree Days 22    
Moisture  
Dew Point 25 °F    
Average Humidity 54    
Maximum Humidity 88    
Minimum Humidity 26    
Precipitation  
Precipitation 0.00 in - - ()
Sea Level Pressure  
Sea Level Pressure 30.45 in    
Wind  
Wind Speed 3 mph (NNE)    
Max Wind Speed 7 mph    
Max Gust Speed -    
Visibility 10 miles    
Events      
Averages and records for this station are not official NWS values.
T = Trace of Precipitation, MM = Missing Value Source: NWS Daily Summary

Daily Weather History Graph

Daily Weather History Graph

Search for Another Location

Airport or City:

Trip Planner

Search our weather history database for the weather conditions in past years. The results will help you decide how hot, cold, wet, or windy it might be!

Date:

Astronomy

Mar. 01, 2013 Rise Set
Actual Time 6:27 AM PST 5:46 PM PST
Civil Twilight 5:59 AM PST 6:13 PM PST
Nautical Twilight 5:28 AM PST 6:45 PM PST
Astronomical Twilight 4:57 AM PST 7:16 PM PST
Moon 10:25 PM PST (3/1) 8:16 AM PST (3/1)
Length of Visible Light 12h 13m
Length of Day
11h 19m
Waning Gibbous, 82% of the Moon is Illuminated
Mar 1
Waning Gibbous
Mar 4
Last Quarter
Mar 11
New
Mar 19
First Quarter
Mar 27
Full

Hourly Weather History & Observations

Time (PST) Temp. Windchill Dew Point Humidity Pressure Visibility Wind Dir Wind Speed Gust Speed Precip Events Conditions
12:53 AM 36.0 °F - 26.1 °F 67% 30.49 in 10.0 mi Calm Calm - N/A   Clear
1:53 AM 30.0 °F 25.2 °F 23.0 °F 75% 30.51 in 10.0 mi WSW 4.6 mph - N/A   Clear
2:53 AM 28.9 °F 23.9 °F 21.9 °F 75% 30.51 in 10.0 mi SE 4.6 mph - N/A   Clear
3:53 AM 26.1 °F 21.9 °F 19.0 °F 75% 30.51 in 10.0 mi NW 3.5 mph - N/A   Clear
4:53 AM 28.0 °F 24.2 °F 23.0 °F 81% 30.51 in 10.0 mi North 3.5 mph - N/A   Clear
5:53 AM 23.0 °F 15.8 °F 19.9 °F 88% 30.55 in 10.0 mi ESE 5.8 mph - N/A   Clear
6:53 AM 26.1 °F - 23.0 °F 88% 30.56 in 10.0 mi Calm Calm - N/A   Clear
7:53 AM 34.0 °F - 27.0 °F 75% 30.54 in 10.0 mi Calm Calm - N/A   Clear
8:53 AM 46.0 °F - 33.1 °F 61% 30.53 in 10.0 mi Calm Calm - N/A   Clear
9:53 AM 51.1 °F - 35.1 °F 54% 30.51 in 10.0 mi ESE 3.5 mph - N/A   Clear
10:53 AM 55.0 °F - 32.0 °F 42% 30.50 in 10.0 mi SE 5.8 mph - N/A   Clear
11:53 AM 57.9 °F - 30.9 °F 36% 30.47 in 10.0 mi WNW 3.5 mph - N/A   Clear
12:53 PM 61.0 °F - 30.9 °F 32% 30.42 in 10.0 mi NNE 4.6 mph - N/A   Clear
1:53 PM 63.0 °F - 28.9 °F 28% 30.40 in 10.0 mi Variable 3.5 mph - N/A   Clear
2:53 PM 64.9 °F - 28.9 °F 26% 30.38 in 10.0 mi NNE 5.8 mph - N/A   Clear
3:53 PM 64.0 °F - 28.9 °F 27% 30.39 in 10.0 mi WNW 6.9 mph - N/A   Clear
4:53 PM 63.0 °F - 28.0 °F 27% 30.36 in 10.0 mi NW 3.5 mph - N/A   Clear
5:53 PM 57.9 °F - 28.9 °F 33% 30.38 in 10.0 mi Calm Calm - N/A   Clear
6:53 PM 46.9 °F - 24.1 °F 41% 30.41 in 10.0 mi NNW 4.6 mph - N/A   Clear
7:53 PM 42.1 °F 39.2 °F 21.9 °F 45% 30.41 in 10.0 mi North 4.6 mph - N/A   Clear
8:53 PM 39.0 °F 36.8 °F 21.0 °F 49% 30.39 in 10.0 mi NNE 3.5 mph - N/A   Clear
9:53 PM 34.0 °F 28.8 °F 19.0 °F 54% 30.39 in 10.0 mi SE 5.8 mph - N/A   Clear
10:53 PM 30.0 °F - 17.1 °F 59% 30.39 in 10.0 mi Calm Calm - N/A   Clear
11:53 PM 30.9 °F 26.2 °F 17.1 °F 57% 30.38 in 10.0 mi NE 4.6 mph - N/A   Clear